Regional Weather Roundup
Issued by NWS

Home | Current Version | Previous Version | Text Only | Print | Product List | Glossary On
Versions: 1 2 3 4 5 6 7 8 9 10 11 12 13 14 15 16 17 18 19 20 21 22 23 24 25 26 27 28 29 30 31 32 33 34 35 36 37 38 39 40 41 42 43 44 45 46 47 48 49 50
000
ASUS44 KLIX 061311
RWRLA
LOUISIANA WEATHER ROUNDUP
NATIONAL WEATHER SERVICE NEW ORLEANS LA
800 AM CDT WED MAY 06 2015

NOTE: "FAIR" INDICATES FEW OR NO CLOUDS BELOW 12,000 FEET WITH NO
      SIGNIFICANT WEATHER AND/OR OBSTRUCTIONS TO VISIBILITY.
      SKY/WX - SKY CONDITION AND SIGNIFICANT WEATHER.
      TMP - AIR TEMPERATURE.    DP   - DEWPOINT TEMPERATURE.
      RH  - RELATIVE HUMIDITY.  PRES - PRESSURE.
      HX  - HEAT INDEX.         WCI  - WIND CHILL INDEX.

*  THESE STATIONS ARE NOT NWS OR FAA STATIONS AND ARE NOT UNDER
   NWS QUALITY CONTROL.

LAZ040-048-061>063-065-066-069-061400-
SOUTHEAST LOUISIANA

CITY           SKY/WX    TMP DP  RH WIND       PRES   REMARKS
N.O. AUDUBON     N/A     76  67  73 MISG        N/A
N.O. INTL ARPT MOSUNNY   73  65  75 E5        30.09R
N.O. LAKEFRONT SUNNY     75  65  70 SE10      30.10R
SLIDELL        SUNNY     68  65  90 N3        30.10R
BATON ROUGE    MOSUNNY   66  63  90 NE5       30.09S
BOOTHVILLE     SUNNY     72  68  87 CALM      30.09R
BELLE CHASSE   MOSUNNY   74  66  76 E7        30.08R
BOGALUSA*        N/A     64  61  88 N3        30.13R
GALLIANO*      SUNNY     76  67  74 CALM      30.08R
NEW ROADS*     FAIR      67  64  88 E6        30.08S
GONZALES*      FAIR      69  68  99 E3        30.07S
HAMMOND*       SUNNY     68  63  83 E3        30.12R
HOUMA*         MOSUNNY   72  70  94 NE7       30.07R
PORT FOURCHON* MOSUNNY   77  66  69 E12G18    30.10R

$$

LAZ041-044-053-054-061400-
SOUTHWEST LOUISIANA

CITY           SKY/WX    TMP DP  RH WIND       PRES   REMARKS
LAKE CHARLES   PTSUNNY   71  67  87 E9        30.04R
LAFAYETTE      MOSUNNY   67  65  93 E3        30.06S
PATTERSON      SUNNY    N/A N/A N/A E8        30.07R
SALT POINT       N/A     71  69  93 VRB3      30.04R
NEW IBERIA       N/A    N/A N/A N/A MISG      30.07R
CHENAULT AIRPK SUNNY     70  66  88 E7        30.04R

$$

LAZ027-028-061400-
CENTRAL LOUISIANA

CITY           SKY/WX    TMP DP  RH WIND       PRES   REMARKS
FORT POLK      PTSUNNY   68  64  87 SE8       30.05R
ALEXANDRIA INT PTSUNNY   66  63  90 E6        30.06R
ALEXANDRIA     MOSUNNY   67  62  84 E3        30.08R

$$

LAZ001-002-061400-
NORTHWEST LOUISIANA

CITY           SKY/WX    TMP DP  RH WIND       PRES   REMARKS
SHREVEPORT     MOSUNNY   69  63  81 SE9       30.06R
BARKSDALE AFB  MOSUNNY   67  64  91 SE8       30.06R
DTN SHREVEPORT NOT AVBL

$$

LAZ014-016-061400-
NORTHEAST LOUISIANA

CITY           SKY/WX    TMP DP  RH WIND       PRES   REMARKS
MONROE         SUNNY     66  61  84 E3        30.11R
TALLULAH       SUNNY     67  61  81 E6        30.12S

$$




USA.gov is the U.S. government's official web portal to all federal, state and local government web resources and services.